Breckenridge, CO

8:02 PM MST on February 13, 2016 (GMT -0700)
Copper Mountain

Weather History for KCCU - December, 2013

Change the Weather History Date:

Monday, December 2, 2013

  Actual Average Record
Temperature  
Mean Temperature 26 °F -  
Max Temperature 28 °F - 33 °F (2003)
Min Temperature 23 °F - -4 °F (2006)
Degree Days  
Heating Degree Days 40    
Month to date heating degree days  
Cooling Degree Days 0    
Month to date cooling degree days  
Moisture  
Dew Point 17 °F    
Average Humidity 72    
Maximum Humidity 80    
Minimum Humidity 55    
Precipitation  
Precipitation 0.00 in - 0.00 in (2016)
Sea Level Pressure  
Sea Level Pressure 29.98 in    
Wind  
Wind Speed 25 mph (WSW)    
Max Wind Speed 40 mph    
Max Gust Speed 53 mph    
Visibility 1 miles    
Events Snow    
T = Trace of Precipitation, MM = Missing Value Source: NWS Daily Summary

Daily Weather History Graph

Daily Weather History Graph

Search for Another Location

Airport or City:

Trip Planner

Search our weather history database for the weather conditions in past years. The results will help you decide how hot, cold, wet, or windy it might be!

Date:

Astronomy

Dec. 02, 2013 Rise Set
Actual Time 7:07 AM MST 4:41 PM MST
Civil Twilight 6:37 AM MST 5:10 PM MST
Nautical Twilight 6:03 AM MST 5:44 PM MST
Astronomical Twilight 5:31 AM MST 6:16 PM MST
Moon 6:35 AM MST (12/2) 4:46 PM MST (12/2)
Length of Visible Light 10h 33m
Length of Day
9h 34m
Waning Crescent, 0% of the Moon is Illuminated
Dec 2
Waning Crescent
Dec 2
New
Dec 9
First Quarter
Dec 17
Full
Dec 25
Last Quarter

Hourly Weather History & Observations

Time (MST) Temp. Windchill Dew Point Humidity Pressure Visibility Wind Dir Wind Speed Gust Speed Precip Events Conditions
12:15 AM 24.8 °F 7.3 °F 19.4 °F 80% 30.15 in 2.5 mi West 32.2 mph 39.1 mph N/A   Haze
12:35 AM 24.8 °F 8.1 °F 19.4 °F 80% 30.14 in 1.5 mi WSW 28.8 mph 36.8 mph N/A   Haze
12:55 AM 24.8 °F 8.4 °F 19.4 °F 80% 30.14 in 2.5 mi West 27.6 mph 41.4 mph N/A   Haze
1:15 AM 24.8 °F 11.5 °F 19.4 °F 80% 30.14 in 2.5 mi West 17.3 mph 41.4 mph N/A   Haze
1:35 AM 24.8 °F 11.9 °F 19.4 °F 80% 30.15 in 10.0 mi West 16.1 mph 24.2 mph N/A   Overcast
1:55 AM 24.8 °F 19.1 °F 19.4 °F 80% 30.15 in 1.2 mi West 4.6 mph - N/A   Haze
2:15 AM 24.8 °F 14.6 °F 19.4 °F 80% 30.15 in 0.2 mi West 10.4 mph - N/A Snow Light Snow
2:35 AM 24.8 °F 19.1 °F 19.4 °F 80% 30.14 in 0.2 mi SW 4.6 mph - N/A Snow Light Snow
2:55 AM 24.8 °F 19.1 °F 19.4 °F 80% 30.12 in 10.0 mi West 4.6 mph - N/A   Overcast
3:15 AM 23.0 °F 11.7 °F 17.6 °F 80% 30.12 in 0.2 mi West 11.5 mph 19.6 mph N/A Snow Light Snow
3:35 AM 23.0 °F 12.4 °F 17.6 °F 80% 30.11 in 1.2 mi West 10.4 mph - N/A Snow Light Snow
3:55 AM 23.0 °F 13.1 °F 17.6 °F 80% 30.10 in 0.5 mi West 9.2 mph - N/A Snow Light Snow
4:15 AM 23.0 °F 8.7 °F 17.6 °F 80% 30.10 in 0.5 mi West 18.4 mph 21.9 mph N/A Snow Light Snow
4:35 AM 24.8 °F 8.7 °F 19.4 °F 80% 30.08 in 0.5 mi WSW 26.5 mph 33.4 mph N/A Snow Snow
4:55 AM 24.8 °F 9.6 °F 19.4 °F 80% 30.08 in 0.5 mi West 23.0 mph 32.2 mph N/A Snow Snow
5:15 AM 24.8 °F 10.3 °F 19.4 °F 80% 30.08 in 0.8 mi WSW 20.7 mph 40.3 mph N/A Snow Light Snow
5:35 AM 24.8 °F 8.7 °F 19.4 °F 80% 30.06 in 0.8 mi West 26.5 mph 38.0 mph N/A Snow Light Snow
5:55 AM 24.8 °F 10.0 °F 19.4 °F 80% 30.06 in 1.0 mi WSW 21.9 mph 32.2 mph N/A Snow Light Snow
6:15 AM 24.8 °F 10.0 °F 19.4 °F 80% 30.05 in 0.8 mi WSW 21.9 mph 33.4 mph N/A Snow Light Snow
6:35 AM 24.8 °F 9.0 °F 19.4 °F 80% 30.04 in 0.5 mi WSW 25.3 mph 35.7 mph N/A Snow Light Snow
6:55 AM 24.8 °F 7.6 °F 19.4 °F 80% 30.03 in 0.2 mi West 31.1 mph 40.3 mph N/A Snow Snow
7:15 AM 24.8 °F 8.1 °F 19.4 °F 80% 30.03 in 0.2 mi WSW 28.8 mph 36.8 mph N/A Snow Snow
7:35 AM 24.8 °F 7.3 °F 19.4 °F 80% 30.02 in 0.2 mi WSW 32.2 mph 43.7 mph N/A Snow Heavy Snow
7:55 AM 24.8 °F 7.9 °F 19.4 °F 80% 30.03 in 0.2 mi WSW 29.9 mph 44.9 mph N/A Snow Heavy Snow
8:15 AM 24.8 °F 7.9 °F 19.4 °F 80% 30.03 in 0.2 mi WSW 29.9 mph 40.3 mph N/A Snow Heavy Snow
8:35 AM 24.8 °F 7.9 °F 19.4 °F 80% 30.02 in 0.2 mi WSW 29.9 mph 44.9 mph N/A Snow Heavy Snow
8:55 AM 24.8 °F 7.9 °F 19.4 °F 80% 30.02 in 0.2 mi West 29.9 mph 46.0 mph N/A Snow Heavy Snow
9:15 AM 24.8 °F 6.8 °F 19.4 °F 80% 30.01 in 0.2 mi WSW 34.5 mph 44.9 mph N/A Snow Snow
9:35 AM 24.8 °F 7.3 °F 19.4 °F 80% 30.01 in 0.2 mi WSW 32.2 mph 44.9 mph N/A Snow Snow
9:55 AM 24.8 °F 7.3 °F 19.4 °F 80% 30.02 in 0.5 mi West 32.2 mph 47.2 mph N/A Snow Light Snow
10:15 AM 24.8 °F 6.0 °F 19.4 °F 80% 30.01 in 0.5 mi West 39.1 mph 48.3 mph N/A Snow Light Snow
10:35 AM 26.6 °F 9.3 °F 19.4 °F 74% 30.01 in 0.5 mi West 34.5 mph 48.3 mph N/A Snow Light Snow
10:55 AM 28.4 °F 11.4 °F 17.6 °F 64% 29.98 in 0.8 mi WSW 36.8 mph 50.6 mph N/A Snow Light Snow
11:15 AM 26.6 °F 9.6 °F 17.6 °F 69% 29.98 in 0.5 mi WSW 33.4 mph 51.8 mph N/A Snow Light Snow
11:35 AM 28.4 °F 11.8 °F 17.6 °F 64% 29.97 in 0.5 mi WSW 34.5 mph 52.9 mph N/A Snow Light Snow
11:55 AM 28.4 °F 12.0 °F 17.6 °F 64% 29.96 in 0.5 mi WSW 33.4 mph 49.5 mph N/A Snow Light Snow
12:15 PM 26.6 °F 8.9 °F 17.6 °F 69% 29.95 in 0.2 mi WSW 36.8 mph 52.9 mph N/A Snow Light Snow
12:35 PM 26.6 °F 9.1 °F 17.6 °F 69% 29.96 in 0.5 mi WSW 35.7 mph 48.3 mph N/A Snow Light Snow
12:55 PM 26.6 °F 8.3 °F 15.8 °F 64% 29.96 in 0.5 mi West 40.3 mph 47.2 mph N/A Snow Light Snow
1:15 PM 26.6 °F 9.6 °F 17.6 °F 69% 29.97 in 0.2 mi WSW 33.4 mph 49.5 mph N/A Snow Light Snow
1:35 PM 26.6 °F 10.3 °F 17.6 °F 69% 29.97 in 0.2 mi WSW 29.9 mph 39.1 mph N/A Snow Light Snow
1:55 PM 26.6 °F 9.6 °F 15.8 °F 64% 29.96 in 0.8 mi WSW 33.4 mph 43.7 mph N/A Snow Light Snow
2:15 PM 26.6 °F 12.0 °F 14.0 °F 59% 29.95 in 1.0 mi WSW 23.0 mph 43.7 mph N/A Snow Light Snow
2:35 PM 26.6 °F 10.6 °F 15.8 °F 64% 29.94 in 0.8 mi WSW 28.8 mph 41.4 mph N/A Snow Light Snow
2:55 PM 26.6 °F 10.6 °F 14.0 °F 59% 29.93 in 1.0 mi WSW 28.8 mph 43.7 mph N/A Snow Light Snow
3:15 PM 26.6 °F 10.0 °F 15.8 °F 64% 29.93 in 0.2 mi WSW 31.1 mph 51.8 mph N/A Snow Snow
3:35 PM 26.6 °F 9.6 °F 15.8 °F 64% 29.92 in 0.8 mi West 33.4 mph 44.9 mph N/A Snow Light Snow
3:55 PM 26.6 °F 9.6 °F 15.8 °F 64% 29.91 in 0.8 mi WSW 33.4 mph 44.9 mph N/A Snow Light Snow
4:15 PM 26.6 °F 10.3 °F 15.8 °F 64% 29.93 in 0.8 mi WSW 29.9 mph 43.7 mph N/A Snow Light Snow
4:35 PM 26.6 °F 9.3 °F 15.8 °F 64% 29.91 in 1.0 mi WSW 34.5 mph 46.0 mph N/A Snow Light Snow
4:55 PM 26.6 °F 11.4 °F 15.8 °F 64% 29.92 in 4.0 mi WSW 25.3 mph 36.8 mph N/A Snow Light Snow
5:15 PM 26.6 °F 10.3 °F 15.8 °F 64% 29.92 in 0.8 mi WSW 29.9 mph 38.0 mph N/A Snow Light Snow
5:35 PM 24.8 °F 9.6 °F 17.6 °F 74% 29.91 in 0.2 mi West 23.0 mph 38.0 mph N/A Snow Snow
5:55 PM 24.8 °F 9.6 °F 17.6 °F 74% 29.91 in 0.2 mi WSW 23.0 mph 35.7 mph N/A Snow Snow
6:15 PM 24.8 °F 10.3 °F 19.4 °F 80% 29.90 in 0.2 mi WSW 20.7 mph 33.4 mph N/A Snow Snow
6:35 PM 24.8 °F 12.4 °F 19.4 °F 80% 29.90 in 0.5 mi WSW 15.0 mph 25.3 mph N/A Snow Snow
6:55 PM 24.8 °F 10.0 °F 17.6 °F 74% 29.89 in 0.8 mi WSW 21.9 mph 31.1 mph N/A Snow Light Snow
7:15 PM 24.8 °F 8.7 °F 17.6 °F 74% 29.88 in 0.5 mi WSW 26.5 mph 35.7 mph N/A Snow Light Snow
7:35 PM 24.8 °F 11.1 °F 17.6 °F 74% 29.89 in 0.8 mi WSW 18.4 mph 33.4 mph N/A Snow Light Snow
7:55 PM 24.8 °F 10.0 °F 17.6 °F 74% 29.88 in 0.5 mi WSW 21.9 mph 33.4 mph N/A Snow Snow
8:15 PM 24.8 °F 9.6 °F 17.6 °F 74% 29.88 in 0.5 mi WSW 23.0 mph 31.1 mph N/A Snow Light Snow
8:35 PM 24.8 °F 8.7 °F 15.8 °F 69% 29.86 in 2.0 mi WSW 26.5 mph 35.7 mph N/A Snow Light Snow
8:55 PM 26.6 °F 13.1 °F 14.0 °F 59% 29.87 in 0.5 mi WSW 19.6 mph 28.8 mph N/A Snow Light Snow
9:15 PM 26.6 °F 13.1 °F 14.0 °F 59% 29.85 in 1.0 mi SW 19.6 mph 34.5 mph N/A Snow Light Snow
9:35 PM 26.6 °F 13.1 °F 14.0 °F 59% 29.85 in 1.8 mi WSW 19.6 mph 36.8 mph N/A   Haze
9:55 PM 26.6 °F 11.7 °F 12.2 °F 55% 29.85 in 1.2 mi WSW 24.2 mph 38.0 mph N/A Snow Light Snow
10:15 PM 26.6 °F 12.7 °F 12.2 °F 55% 29.84 in 2.0 mi WSW 20.7 mph 32.2 mph N/A   Haze
10:35 PM 26.6 °F 12.0 °F 14.0 °F 59% 29.83 in 1.8 mi WSW 23.0 mph 35.7 mph N/A   Haze
10:55 PM 26.6 °F 12.4 °F 12.2 °F 55% 29.82 in 2.5 mi WSW 21.9 mph 31.1 mph N/A   Haze
11:15 PM 26.6 °F 12.0 °F 14.0 °F 59% 29.82 in 1.0 mi WSW 23.0 mph 35.7 mph N/A Snow Light Snow
11:35 PM 26.6 °F 11.1 °F 14.0 °F 59% 29.80 in 1.5 mi WSW 26.5 mph 35.7 mph N/A Snow Light Snow
11:55 PM 26.6 °F 11.4 °F 14.0 °F 59% 29.80 in 1.2 mi WSW 25.3 mph 38.0 mph N/A Snow Light Snow